RH
8 8 8 7 8 8 9 8 6 5 6 6 5 5 4 5 6 6 6 4 4 4 13 15 4 4 3 4 4 4 4 4 4 4 4 4 4 4 4 4 3 3 3 2 2 2 2 2 2
8 7 7 7 7 8 23 8 7 8 6 5 6 5 5 6 6 6 7 5 4 4 4 6 4 3 4 4 4 4 4 4 4 5 5 5 5 5 5 5 4 4 4 4 4 3 3 3 2
6 6 6 6 7 8 46 7 7 7 7 7 5 6 5 7 8 7 7 7 6 5 4 4 4 4 4 4 4 4 4 4 4 5 5 5 5 5 5 5 5 5 5 4 4 5 4 4 3
7 7 6 7 7 7 7 7 7 8 7 8 8 6 6 6 6 8 8 8 7 7 6 6 6 6 6 6 6 5 5 5 5 5 4 5 5 5 5 5 6 6 6 6 5 5 5 5 5
8 7 7 7 7 7 7 7 7 8 7 7 7 8 8 6 6 6 7 7 7 7 6 6 5 5 5 5 5 5 6 6 6 6 5 5 5 6 6 6 6 6 6 6 6 6 6 6 6
7 6 7 7 7 7 7 7 8 7 8 7 7 7 8 9 8 6 6 6 7 7 7 6 6 5 5 5 5 6 6 5 5 5 5 5 5 5 6 5 6 6 6 6 7 7 7 7 8
7 7 8 7 7 8 8 8 8 8 8 8 7 7 7 8 9 10 8 6 6 7 7 7 6 6 6 6 6 6 7 7 6 6 6 7 6 6 6 6 6 6 8 8 7 7 7 8 8
8 8 8 8 8 8 8 8 8 8 8 8 8 8 7 8 8 9 10 12 10 7 7 7 6 6 6 7 8 8 8 8 7 7 7 7 7 7 7 8 8 8 8 9 10 10 11 12 13
7 7 9 8 8 7 8 8 8 9 9 8 8 8 7 8 9 9 9 11 14 15 13 11 10 9 10 10 10 10 10 10 10 10 10 9 9 9 9 9 8 8 9 9 9 9 10 10 11
7 8 8 8 8 8 8 8 8 8 9 8 8 8 8 8 9 10 10 10 12 16 17 17 15 14 14 14 14 13 13 12 12 12 11 11 11 12 12 11 12 12 12 12 12 11 11 11 11
9 9 9 9 8 8 8 8 8 9 9 9 8 8 10 9 10 9 10 12 15 15 17 18 18 18 17 16 16 14 14 14 14 14 13 13 14 14 13 13 14 14 15 16 16 16 15 15 14
10 10 9 9 8 8 8 8 9 9 8 9 8 9 10 10 10 10 11 14 15 18 19 19 18 18 18 17 17 15 14 15 15 16 16 16 16 15 15 16 17 17 17 18 17 16 14 12 11
10 10 10 9 8 8 9 10 9 9 8 8 9 9 10 11 12 12 14 15 16 16 17 19 18 17 16 14 16 16 14 14 15 15 16 16 16 18 19 20 21 21 20 18 16 12 10 11 11
14 13 12 12 9 8 10 10 9 9 9 8 9 10 11 12 13 14 16 16 15 16 16 17 17 16 15 14 15 15 15 15 14 14 14 16 18 20 21 22 24 24 22 18 12 11 11 11 11
14 13 12 12 10 9 10 11 10 10 9 10 11 11 12 14 15 16 17 17 16 17 18 17 17 16 15 14 14 15 14 14 13 13 13 14 15 17 21 23 24 24 18 14 13 11 12 13 14
15 14 15 16 11 10 11 14 12 11 10 11 13 13 14 15 15 17 16 17 17 18 18 17 17 17 16 16 15 15 15 15 14 13 13 13 15 16 17 18 18 17 15 14 14 14 15 16 18
19 16 19 17 13 12 13 16 14 14 12 12 14 15 16 17 18 18 19 19 19 19 18 17 16 15 15 14 14 14 13 13 13 12 11 10 10 15 18 18 18 17 16 15 15 17 19 19 19
23 21 17 15 18 16 18 18 18 15 14 13 13 14 15 16 17 18 18 17 15 14 13 13 12 12 12 12 11 11 11 11 11 11 11 10 10 10 11 14 15 15 15 15 17 20 20 19 18
35 17 16 15 24 20 20 20 18 17 15 13 12 12 13 12 12 14 13 12 12 13 14 15 16 16 15 14 14 13 12 12 13 13 12 12 11 11 11 11 12 12 14 16 19 22 21 20 20
42 23 22 20 29 29 20 20 21 19 18 16 13 12 12 11 12 12 13 13 14 16 17 18 18 18 18 18 17 16 15 14 14 13 15 16 19 20 20 20 20 21 23 25 26 25 23 23 23
51 52 34 42 34 36 29 20 19 21 20 20 17 14 13 12 12 13 14 14 16 17 18 19 19 20 21 21 20 19 18 17 16 16 16 17 21 26 30 32 32 31 31 30 29 29 28 28 26
80 44 34 34 36 38 39 23 22 22 21 21 19 18 16 15 13 14 14 15 17 18 18 18 19 20 21 22 22 22 20 19 18 17 17 18 18 20 22 25 27 28 30 30 30 30 28 26 25
76 39 44 46 47 41 34 26 22 18 18 19 23 25 22 20 17 16 16 16 17 18 19 20 20 21 22 23 23 23 21 20 19 18 18 18 18 19 20 21 22 23 24 25 26 27 28 29 29
87 41 54 56 52 39 33 27 21 19 20 22 23 24 25 25 24 21 20 19 19 21 24 26 25 23 23 23 24 24 22 20 20 19 19 20 20 21 22 23 23 24 25 27 28 29 30 30 30
87 40 52 58 55 41 40 35 28 24 25 24 24 23 22 22 24 27 27 27 26 27 26 25 25 24 24 24 24 22 20 19 19 20 20 21 22 22 24 25 26 28 28 28 28 28 29 29 29
56 40 44 50 46 47 45 37 33 36 34 33 32 30 29 27 25 24 24 24 25 25 25 25 25 25 24 22 20 20 21 22 23 24 24 25 25 25 26 28 30 31 33 34 34 33 34 34 34
77 69 38 35 34 33 33 30 28 27 26 24 25 25 26 27 28 28 28 28 27 27 26 24 23 22 22 23 25 26 27 28 28 28 29 29 30 30 30 31 32 33 35 37 39 41 44 43 43
40 45 44 40 36 34 29 26 26 27 28 28 26 25 26 25 25 25 26 26 26 26 28 29 31 31 31 30 31 32 32 32 33 33 34 37 37 37 37 36 36 36 37 39 41 44 46 46 46
40 38 39 40 39 38 39 37 36 37 37 36 34 32 30 30 30 30 31 33 33 33 34 36 40 49 62 74 79 83 78 80 94 94 87 77 68 62 57 52 50 49 51 54 56 56 55 54 63
58 58 62 60 55 52 50 44 44 44 46 44 42 41 39 39 40 41 43 45 48 56 64 69 73 80 88 94 95 96 94 91 88 86 85 85 86 86 86 85 86 88 88 86 83 77 71 70 72
Wind_Speed
11 10 10 9 9 9 8 7 6 7 7 6 7 8 9 10 9 8 9 11 13 15 15 11 10 10 8 8 8 8 7 7 5 4 4 3 2 2 1 0 1 1 1 1 2 3 4 5 6
13 13 13 11 10 11 11 9 9 7 7 9 9 9 10 12 12 12 11 11 12 13 14 15 14 12 11 9 9 8 8 8 7 6 6 5 4 4 3 2 2 2 1 2 2 2 3 4 5
15 15 14 13 12 15 16 13 11 11 9 8 10 11 12 13 13 13 13 13 12 12 12 13 14 13 12 12 11 10 11 10 9 9 8 8 7 8 6 6 5 4 3 3 3 2 3 3 3
16 16 16 15 15 18 19 16 15 14 14 12 12 12 13 14 15 14 14 14 14 13 12 12 13 13 13 13 12 12 12 12 12 11 12 12 10 10 9 9 8 7 6 5 5 4 3 3 4
18 18 17 17 17 19 19 17 18 17 17 16 16 15 14 14 16 17 17 16 16 16 14 13 13 13 13 13 13 12 12 13 13 13 13 13 13 11 11 12 11 10 10 10 9 7 5 4 5
18 19 17 18 19 19 19 19 19 19 19 19 20 19 18 17 16 17 18 18 18 17 17 16 15 15 14 13 13 12 12 13 13 13 13 12 11 11 12 12 12 12 12 13 12 11 9 8 8
19 19 18 18 19 19 19 19 21 20 20 21 22 22 22 22 20 19 19 20 20 20 19 19 19 17 16 15 14 13 13 12 13 12 12 12 11 11 12 12 13 13 13 13 13 13 13 12 11
20 20 18 19 20 21 19 20 21 22 19 21 22 23 25 25 25 24 23 21 20 21 21 21 20 19 18 16 15 15 15 15 14 13 14 13 14 14 14 13 14 15 14 14 15 14 14 13 13
21 20 19 21 21 20 20 21 22 22 21 21 21 21 23 26 27 28 27 26 23 23 23 23 22 20 19 19 18 18 18 18 17 17 18 17 17 16 16 16 16 16 17 17 17 17 16 16 16
19 19 21 21 20 19 20 21 21 22 21 21 21 22 22 23 26 29 30 29 28 25 25 24 23 22 22 21 20 20 21 21 20 20 19 18 17 17 17 18 18 18 18 19 19 19 18 18 19
19 20 20 21 20 20 21 21 21 22 22 22 22 22 22 22 23 25 27 29 29 28 27 26 25 24 24 24 22 22 22 22 22 21 20 20 19 20 20 20 20 20 19 20 21 20 19 19 20
19 20 21 21 22 20 21 21 22 23 22 23 23 24 23 23 22 20 20 23 26 28 27 27 25 25 25 25 25 24 23 23 23 23 22 23 23 23 22 22 21 21 22 22 22 22 21 21 22
21 20 22 23 21 21 22 22 22 23 21 23 22 24 24 23 22 19 19 20 22 24 27 28 28 27 26 26 26 26 25 24 24 24 24 25 25 24 23 23 23 22 23 23 23 23 21 21 21
21 21 25 24 21 23 23 22 21 21 22 21 21 22 23 23 21 19 19 20 20 21 22 24 26 26 26 26 26 26 26 25 25 26 27 27 26 26 25 24 24 24 23 24 23 22 20 20 19
23 25 25 23 22 24 24 22 21 21 20 19 19 20 21 22 21 20 18 18 18 19 20 21 22 22 22 23 24 25 25 25 26 26 27 28 29 29 28 26 26 26 25 26 22 21 19 20 20
26 27 26 22 24 25 25 23 22 21 19 18 18 18 19 19 19 18 17 16 17 18 18 19 19 20 20 20 21 22 22 23 23 23 24 25 26 27 28 29 29 28 25 24 22 21 20 20 20
28 27 26 24 27 27 26 26 23 22 21 20 19 19 18 17 17 16 15 15 15 15 16 16 17 18 18 18 19 20 21 22 22 23 23 24 23 23 25 26 26 26 24 23 22 21 21 21 21
26 27 28 31 29 29 29 27 26 25 23 22 22 21 20 20 19 17 17 16 16 16 15 15 15 15 16 17 18 19 19 20 21 22 23 23 23 23 23 24 24 25 24 23 23 23 22 22 22
29 32 32 33 29 31 30 30 30 28 26 25 24 24 24 22 20 19 18 18 16 15 14 14 14 14 14 15 15 16 17 19 20 20 21 21 22 23 24 24 24 24 24 24 24 24 24 24 24
33 32 32 31 31 32 32 33 34 31 29 27 27 27 27 25 23 22 21 21 19 18 17 17 18 18 17 17 18 19 20 19 19 19 19 20 20 20 21 21 21 22 23 24 25 25 26 26 26
31 33 34 34 33 35 33 36 38 33 31 30 30 29 29 28 27 27 25 25 24 22 22 23 22 21 21 21 22 23 23 23 22 20 20 20 21 22 22 23 24 24 25 26 27 27 28 29 30
34 33 34 34 36 37 36 37 39 37 34 33 32 31 31 30 30 31 30 28 28 27 27 27 27 27 27 27 27 26 26 26 24 23 23 23 23 24 26 27 28 28 29 29 30 30 30 30 30
35 32 32 33 36 37 37 40 37 36 36 34 33 33 32 32 34 33 33 34 33 31 31 31 32 31 32 31 30 30 30 29 28 27 26 26 26 26 27 28 28 29 30 30 31 31 31 31 31
36 35 33 35 36 42 34 37 35 36 33 36 35 36 36 36 37 37 37 37 36 35 34 35 36 35 35 35 34 33 33 32 32 31 30 30 29 29 30 30 30 31 31 31 32 32 33 34 34
32 36 36 38 40 41 33 36 36 33 31 33 35 36 37 38 39 39 39 39 38 38 37 38 38 38 38 38 37 36 35 35 35 34 34 34 33 33 34 34 34 34 34 34 35 36 36 37 37
38 38 38 40 40 39 35 39 36 32 33 34 35 36 38 38 39 39 39 39 39 39 39 40 39 39 38 38 38 37 37 37 37 37 37 37 37 37 37 38 38 38 38 39 39 39 39 40 40
39 39 38 39 40 40 38 35 33 31 30 32 33 34 35 36 37 38 39 39 38 39 39 39 38 38 38 38 38 39 39 39 40 40 40 40 40 40 41 41 42 42 42 43 44 44 44 44 45
35 34 35 36 36 37 38 36 33 31 31 32 33 34 36 36 36 36 36 35 36 36 37 38 38 39 39 40 40 41 42 42 42 42 43 43 44 44 45 45 46 46 47 47 47 48 49 49 49
30 31 32 33 38 38 38 41 36 35 33 32 32 34 36 37 37 37 37 37 38 38 38 37 37 38 39 40 41 42 43 44 44 44 44 45 45 46 46 47 47 48 49 50 52 53 53 53 53
35 33 34 37 38 40 41 44 41 37 32 30 31 33 35 36 37 37 38 38 38 38 38 39 41 42 43 43 42 42 43 43 43 44 45 46 46 47 48 49 50 51 53 54 55 56 57 58 59
Wind_Direction
213 218 221 215 220 224 227 225 219 223 227 227 207 213 214 216 213 202 199 199 186 184 178 225 203 202 206 201 196 192 190 193 181 186 190 189 197 212 211 192 246 170 252 269 339 354 5 6 18
223 221 227 224 226 228 241 224 225 223 224 233 225 220 225 225 219 215 205 204 202 195 195 200 207 215 218 211 208 208 212 214 215 216 224 226 234 251 259 284 300 309 323 336 341 348 354 5 1
226 229 230 229 225 229 231 228 226 237 234 226 236 227 226 230 228 220 214 211 209 206 208 209 213 218 219 223 222 222 225 228 230 233 240 243 247 250 260 266 270 273 277 292 305 333 350 354 338
231 234 234 237 230 237 240 237 238 235 241 236 231 231 228 228 231 227 219 215 215 215 211 217 223 223 223 229 231 232 236 237 243 246 251 249 254 256 259 264 266 265 268 274 281 282 289 311 312
240 239 238 240 238 239 238 239 239 238 241 240 239 236 233 231 229 232 230 225 221 222 225 223 226 231 231 234 237 239 242 242 246 249 254 258 258 264 264 263 265 266 266 264 261 268 272 280 289
244 242 238 238 239 241 240 240 241 242 243 242 243 240 238 238 234 234 234 235 232 233 232 235 233 233 237 241 241 242 246 248 251 251 254 258 260 263 266 269 267 265 260 258 260 261 264 264 273
242 239 238 240 243 242 241 242 243 243 243 244 244 245 242 242 241 238 239 239 237 237 238 238 239 241 241 239 241 243 248 252 252 254 259 260 263 264 264 264 265 265 262 260 260 259 261 263 267
242 240 240 244 245 246 243 245 246 245 246 247 247 246 245 243 243 242 242 243 241 242 239 241 242 243 244 244 247 249 252 254 257 263 265 265 263 263 261 261 263 264 263 263 262 261 261 261 265
246 243 244 244 246 248 247 247 247 247 245 248 251 250 247 246 246 246 244 244 243 244 242 240 240 242 244 246 248 250 254 257 262 263 263 264 264 264 265 265 263 263 264 264 263 262 264 266 268
252 245 243 246 247 249 249 249 247 247 245 247 250 251 249 247 247 248 247 246 244 244 243 243 243 244 243 245 251 254 257 259 261 263 263 263 263 266 269 269 267 264 263 265 263 263 264 265 265
254 248 246 249 247 249 250 249 247 248 247 246 252 253 250 250 246 249 250 248 246 243 244 245 245 246 248 250 253 256 256 257 259 261 262 262 263 268 271 270 268 266 265 264 264 263 262 264 265
256 253 250 249 248 249 248 247 248 249 254 251 252 252 248 249 250 250 249 249 248 245 242 243 245 248 249 250 252 253 255 256 257 259 261 262 264 268 269 269 267 267 267 266 265 264 264 265 265
257 257 254 249 249 250 247 248 250 251 251 253 250 247 245 246 246 246 246 246 246 245 244 243 246 248 250 251 250 251 253 255 258 260 262 263 263 265 267 266 267 266 266 266 267 266 264 264 264
257 258 255 249 252 250 248 248 250 250 247 248 246 244 243 243 243 243 244 245 245 244 243 242 244 247 250 251 252 253 255 257 259 261 262 262 264 265 265 264 265 265 265 266 266 264 263 262 262
259 257 256 254 252 251 247 247 244 245 244 242 241 239 238 239 240 241 243 244 242 242 240 241 244 247 250 253 255 256 258 259 261 262 262 262 262 262 262 262 263 264 265 265 259 257 258 261 263
256 254 255 255 257 251 246 242 243 239 237 236 235 235 234 234 236 238 238 240 240 241 241 243 244 246 247 249 252 254 255 257 258 260 261 262 263 262 261 260 262 262 261 259 256 255 257 261 264
259 259 257 256 252 247 244 240 239 237 233 232 232 233 233 231 230 232 233 235 238 241 243 246 246 248 250 252 254 255 257 258 258 260 261 262 264 263 262 260 259 257 256 255 254 255 258 261 263
262 256 254 250 246 242 240 238 236 235 233 232 232 232 232 232 234 233 235 235 236 239 241 244 247 250 253 254 254 255 256 257 258 258 259 260 261 262 261 259 258 256 255 254 253 255 257 260 264
257 259 255 252 247 245 240 239 239 236 235 233 233 234 234 235 235 234 234 234 231 230 234 239 248 253 257 260 259 257 255 254 255 257 259 260 261 261 261 261 261 260 258 255 256 257 259 262 266
257 259 258 256 249 247 244 241 241 238 237 236 235 235 236 235 236 234 232 233 234 237 243 248 255 260 264 264 262 261 259 259 260 261 262 262 261 260 259 258 258 258 258 258 259 259 261 266 270
257 261 257 254 248 245 243 240 243 240 239 238 238 238 237 237 237 238 237 237 239 242 246 252 258 264 264 264 264 264 263 262 260 261 262 261 260 259 258 257 257 258 258 260 262 265 268 270 272
256 258 254 249 246 245 244 244 243 241 238 239 240 240 240 241 241 242 242 243 244 246 251 256 260 262 263 264 265 264 262 261 260 259 258 259 259 259 259 259 260 261 261 263 264 265 267 268 271
257 255 250 246 245 245 242 246 235 243 243 242 241 242 243 245 245 245 245 246 249 253 257 259 260 261 263 263 264 264 261 260 261 261 260 260 262 263 263 263 264 264 265 266 267 268 268 269 270
249 253 247 245 245 246 244 247 243 244 242 244 246 245 244 244 246 247 248 249 252 254 257 258 258 260 263 263 263 262 261 260 260 261 261 261 262 263 263 264 265 266 266 267 268 269 270 271 271
251 251 247 247 246 251 247 249 250 247 244 244 243 246 247 247 248 250 251 253 255 256 257 257 259 260 261 263 264 264 264 263 263 262 262 262 262 262 263 264 265 265 266 267 268 269 270 271 272
250 245 246 249 251 254 250 248 251 250 248 247 247 246 247 248 250 251 252 253 254 254 255 257 259 260 261 262 264 264 264 264 264 264 265 265 265 265 264 264 264 265 266 268 269 272 273 275 275
242 243 247 250 253 255 254 252 252 251 248 248 248 249 248 248 247 248 249 251 253 254 256 257 258 260 261 262 263 264 264 264 265 266 266 266 266 266 266 268 269 269 270 270 271 272 274 274 276
240 238 239 242 248 253 258 256 257 256 253 249 248 249 251 251 251 250 250 251 252 253 255 256 258 258 259 260 261 263 264 265 266 266 267 267 268 268 269 269 270 271 271 272 273 274 275 276 277
240 239 242 247 250 255 261 263 261 260 258 255 252 249 248 250 251 252 253 253 254 255 256 257 257 258 260 262 264 265 265 265 266 266 267 267 268 268 268 269 269 270 270 270 271 272 273 273 275
241 243 246 249 255 258 260 262 265 265 263 257 252 248 248 248 249 250 252 253 253 254 256 258 261 263 264 264 265 265 266 267 266 266 267 267 268 269 269 270 270 271 271 272 273 273 274 274 275